Terminal Aerodrome Forecast
Issued by NWS Tulsa, OK

Home | Current Version | Previous Version | Text Only | Print | Product List | Glossary On
Versions: 1 2 3 4 5 6 7 8 9 10 11 12 13 14 15 16 17 18 19
000
FTUS44 KTSA 290520
TAFTUL
TAF
KTUL 290520Z 2906/3006 13012G20KT 6SM -TSRA BKN035CB
      TEMPO 2906/2908 VRB20G35KT 2SM TSRA BKN015CB
     FM291000 14012G18KT 6SM -SHRA BKN025
      TEMPO 2910/2914 4SM -TSRA BKN012CB
     FM291600 17015G25KT P6SM BKN025
     FM292000 19014KT P6SM BKN050
     FM300200 26008KT P6SM BKN100=

USA.gov is the U.S. government's official web portal to all federal, state and local government web resources and services.